Tracking 22836 objects as of 16-Apr-2021
HD Live streaming from Space Station
objects crossing your sky now

STARLINK-1348

Track STARLINK-1348 now!
10-day predictions
STARLINK-1348 is classified as:


NORAD ID: 45561
Int'l Code: 2020-025AG
Perigee: 553.4 km
Apogee: 555.3 km
Inclination: 53.1 °
Period: 95.6 minutes
Semi major axis: 6925 km
RCS: Unknown
Launch date: April 22, 2020
Source: United States (US)
Launch site: AIR FORCE EASTERN TEST RANGE (AFETR)
aabbcc
Your satellite tracking list
Your tracking list is empty




NASA's NSSDC Master Catalog

Two Line Element Set (TLE):
1 45561U 20025AG  21105.72742655  .00001133  00000-0  94935-4 0  9999
2 45561  53.0674 112.5102 0001422  60.0949 300.0181 15.06398369 56922
Source of the keplerian elements: AFSPC